Weather History for KIWD - November, 2012

Change the Weather History Date:

Friday, November 30, 2012

  Actual Average Record
Temperature  
Mean Temperature 26 °F -  
Max Temperature 32 °F 31 °F 57 °F (1998)
Min Temperature 21 °F 19 °F 1 °F (2007)
Degree Days  
Heating Degree Days 38    
Moisture  
Dew Point 20 °F    
Average Humidity 75    
Maximum Humidity 86    
Minimum Humidity 59    
Precipitation  
Precipitation 0.00 in - - ()
Sea Level Pressure  
Sea Level Pressure 30.17 in    
Wind  
Wind Speed 10 mph (ESE)    
Max Wind Speed 15 mph    
Max Gust Speed 18 mph    
Visibility 10 miles    
Events      
Averages and records for this station are not official NWS values.
T = Trace of Precipitation, MM = Missing Value Source: NWS Daily Summary

Daily Weather History Graph

Daily Weather History Graph

Search for Another Location

Airport or City:

Trip Planner

Search our weather history database for the weather conditions in past years. The results will help you decide how hot, cold, wet, or windy it might be!

Date:

Astronomy

Nov. 30, 2012 Rise Set
Actual Time 7:23 AM CST 4:15 PM CST
Civil Twilight 6:49 AM CST 4:49 PM CST
Nautical Twilight 6:11 AM CST 5:27 PM CST
Astronomical Twilight 5:34 AM CST 6:03 PM CST
Moon 6:11 PM CST (11/30) 8:54 AM CST (11/30)
Length of Visible Light 10h 00m
Length of Day
8h 52m
Waning Gibbous, 96% of the Moon is Illuminated
Nov 30
Waning Gibbous
Dec 6
Last Quarter
Dec 13
New
Dec 19
First Quarter
Dec 28
Full

Hourly Weather History & Observations

Time (CST) Temp. Windchill Dew Point Humidity Pressure Visibility Wind Dir Wind Speed Gust Speed Precip Events Conditions
12:15 AM 24.8 °F 15.3 °F 17.6 °F 74% 30.21 in 7.0 mi ENE 9.2 mph - N/A   Overcast
12:35 AM 24.8 °F 14.0 °F 17.6 °F 74% 30.20 in 9.0 mi ENE 11.5 mph - N/A   Overcast
12:55 AM 24.8 °F 14.6 °F 17.6 °F 74% 30.20 in 10.0 mi East 10.4 mph - N/A   Overcast
1:15 AM 24.8 °F 16.1 °F 17.6 °F 74% 30.21 in 10.0 mi ENE 8.1 mph - N/A   Overcast
1:35 AM 24.8 °F 14.0 °F 17.6 °F 74% 30.20 in 10.0 mi East 11.5 mph - N/A   Overcast
1:55 AM 23.0 °F 13.1 °F 17.6 °F 80% 30.21 in 10.0 mi East 9.2 mph - N/A   Overcast
2:15 AM 23.0 °F 10.1 °F 17.6 °F 80% 30.20 in 10.0 mi East 15.0 mph 18.4 mph N/A   Overcast
2:35 AM 23.0 °F 11.7 °F 17.6 °F 80% 30.20 in 10.0 mi East 11.5 mph - N/A   Overcast
2:55 AM 23.0 °F 11.1 °F 17.6 °F 80% 30.20 in 10.0 mi East 12.7 mph 18.4 mph N/A   Overcast
3:15 AM 23.0 °F 10.6 °F 17.6 °F 80% 30.20 in 10.0 mi East 13.8 mph - N/A   Overcast
3:35 AM 23.0 °F 11.7 °F 17.6 °F 80% 30.20 in 10.0 mi East 11.5 mph - N/A   Overcast
3:55 AM 23.0 °F 11.7 °F 17.6 °F 80% 30.20 in 10.0 mi East 11.5 mph - N/A   Overcast
4:15 AM 23.0 °F 12.4 °F 17.6 °F 80% 30.20 in 5.0 mi East 10.4 mph - N/A   Overcast
4:35 AM 23.0 °F 11.1 °F 17.6 °F 80% 30.20 in 9.0 mi East 12.7 mph - N/A   Overcast
4:55 AM 23.0 °F 10.6 °F 17.6 °F 80% 30.20 in 10.0 mi East 13.8 mph - N/A   Overcast
5:15 AM 23.0 °F 13.1 °F 15.8 °F 74% 30.21 in 10.0 mi East 9.2 mph - N/A   Overcast
5:35 AM 23.0 °F 11.7 °F 17.6 °F 80% 30.21 in 10.0 mi East 11.5 mph - N/A   Overcast
5:55 AM 23.0 °F 12.4 °F 17.6 °F 80% 30.20 in 10.0 mi East 10.4 mph - N/A   Overcast
6:15 AM 21.2 °F 11.7 °F 17.6 °F 86% 30.21 in 10.0 mi East 8.1 mph - N/A   Overcast
6:35 AM 23.0 °F 12.4 °F 15.8 °F 74% 30.21 in 10.0 mi East 10.4 mph - N/A   Overcast
6:55 AM 23.0 °F 13.1 °F 17.6 °F 80% 30.21 in 10.0 mi East 9.2 mph - N/A   Overcast
7:15 AM 23.0 °F 12.4 °F 17.6 °F 80% 30.21 in 10.0 mi East 10.4 mph - N/A   Overcast
7:35 AM 23.0 °F 11.1 °F 17.6 °F 80% 30.21 in 10.0 mi East 12.7 mph - N/A   Overcast
7:55 AM 23.0 °F 11.1 °F 17.6 °F 80% 30.21 in 10.0 mi East 12.7 mph - N/A   Overcast
8:15 AM 24.8 °F 14.6 °F 17.6 °F 74% 30.21 in 10.0 mi East 10.4 mph - N/A   Overcast
8:35 AM 24.8 °F 16.9 °F 15.8 °F 69% 30.22 in 10.0 mi ESE 6.9 mph - N/A   Overcast
8:55 AM 24.8 °F 15.3 °F 15.8 °F 69% 30.22 in 10.0 mi ESE 9.2 mph - N/A   Overcast
9:15 AM 24.8 °F 16.9 °F 15.8 °F 69% 30.22 in 10.0 mi ESE 6.9 mph - N/A   Overcast
9:35 AM 24.8 °F 14.6 °F 15.8 °F 69% 30.22 in 10.0 mi ESE 10.4 mph - N/A   Overcast
9:55 AM 24.8 °F 16.9 °F 14.0 °F 64% 30.23 in 10.0 mi ESE 6.9 mph - N/A   Overcast
10:15 AM 24.8 °F 16.9 °F 12.2 °F 59% 30.24 in 10.0 mi ESE 6.9 mph - N/A   Overcast
10:35 AM 24.8 °F 17.9 °F 14.0 °F 64% 30.22 in 10.0 mi ESE 5.8 mph - N/A   Overcast
10:55 AM 26.6 °F 20.0 °F 14.0 °F 59% 30.21 in 10.0 mi ESE 5.8 mph - N/A   Overcast
11:15 AM 26.6 °F 17.5 °F 15.8 °F 64% 30.20 in 10.0 mi ESE 9.2 mph - N/A   Overcast
11:35 AM 26.6 °F 17.5 °F 15.8 °F 64% 30.19 in 10.0 mi SE 9.2 mph - N/A   Overcast
11:55 AM 26.6 °F 18.2 °F 17.6 °F 69% 30.19 in 10.0 mi ESE 8.1 mph - N/A   Overcast
12:15 PM 26.6 °F 18.2 °F 17.6 °F 69% 30.19 in 10.0 mi ESE 8.1 mph - N/A   Overcast
12:35 PM 28.4 °F 22.2 °F 19.4 °F 69% 30.20 in 10.0 mi SE 5.8 mph - N/A   Overcast
12:55 PM 28.4 °F 21.2 °F 19.4 °F 69% 30.19 in 10.0 mi SE 6.9 mph - N/A   Overcast
1:15 PM 28.4 °F 19.1 °F 19.4 °F 69% 30.17 in 10.0 mi SE 10.4 mph - N/A   Overcast
1:35 PM 28.4 °F 19.1 °F 21.2 °F 74% 30.16 in 10.0 mi SE 10.4 mph - N/A   Overcast
1:55 PM 30.2 °F 22.6 °F 21.2 °F 69% 30.16 in 10.0 mi ESE 8.1 mph - N/A   Overcast
2:15 PM 30.2 °F 22.6 °F 21.2 °F 69% 30.15 in 10.0 mi ESE 8.1 mph - N/A   Overcast
2:35 PM 30.2 °F 23.4 °F 21.2 °F 69% 30.16 in 10.0 mi SE 6.9 mph - N/A   Overcast
2:55 PM 30.2 °F 21.9 °F 21.2 °F 69% 30.16 in 10.0 mi SE 9.2 mph - N/A   Overcast
3:15 PM 30.2 °F - 21.2 °F 69% 30.17 in 10.0 mi Calm Calm - N/A   Overcast
3:35 PM 30.2 °F 24.3 °F 23.0 °F 75% 30.17 in 10.0 mi SE 5.8 mph - N/A   Overcast
3:55 PM 30.2 °F 25.4 °F 21.2 °F 69% 30.17 in 10.0 mi SE 4.6 mph - N/A   Overcast
4:15 PM 30.2 °F 25.4 °F 23.0 °F 75% 30.17 in 10.0 mi SE 4.6 mph - N/A   Overcast
4:35 PM 30.2 °F 20.8 °F 23.0 °F 75% 30.15 in 10.0 mi SE 11.5 mph - N/A   Mostly Cloudy
4:55 PM 30.2 °F 23.4 °F 21.2 °F 69% 30.15 in 10.0 mi SE 6.9 mph - N/A   Partly Cloudy
5:15 PM 30.2 °F 22.6 °F 23.0 °F 75% 30.14 in 10.0 mi ESE 8.1 mph - N/A   Partly Cloudy
5:35 PM 30.2 °F 24.3 °F 21.2 °F 69% 30.15 in 10.0 mi SE 5.8 mph - N/A   Mostly Cloudy
5:55 PM 30.2 °F 22.6 °F 24.8 °F 80% 30.15 in 10.0 mi SE 8.1 mph - N/A   Overcast
6:15 PM 30.2 °F 21.3 °F 24.8 °F 80% 30.13 in 10.0 mi ESE 10.4 mph - N/A   Overcast
6:35 PM 30.2 °F 21.9 °F 24.8 °F 80% 30.12 in 10.0 mi SE 9.2 mph - N/A   Overcast
7:15 PM 30.2 °F 24.3 °F 24.8 °F 80% 30.14 in 10.0 mi ESE 5.8 mph - N/A   Overcast
7:35 PM 30.2 °F 24.3 °F 24.8 °F 80% 30.14 in 10.0 mi SE 5.8 mph - N/A   Overcast
7:55 PM 30.2 °F 22.6 °F 24.8 °F 80% 30.13 in 10.0 mi ESE 8.1 mph - N/A   Overcast
8:15 PM 30.2 °F 22.6 °F 24.8 °F 80% 30.12 in 10.0 mi ESE 8.1 mph - N/A   Overcast
8:35 PM 30.2 °F 21.3 °F 24.8 °F 80% 30.11 in 10.0 mi ESE 10.4 mph - N/A   Overcast
8:55 PM 30.2 °F 23.4 °F 24.8 °F 80% 30.11 in 10.0 mi East 6.9 mph - N/A   Overcast
9:15 PM 30.2 °F 21.3 °F 24.8 °F 80% 30.11 in 10.0 mi SE 10.4 mph - N/A   Overcast
9:35 PM 30.2 °F 20.8 °F 24.8 °F 80% 30.11 in 10.0 mi SE 11.5 mph - N/A   Overcast
10:15 PM 30.2 °F 23.4 °F 24.8 °F 80% 30.11 in 10.0 mi SE 6.9 mph - N/A   Overcast
10:35 PM 30.2 °F 23.4 °F 24.8 °F 80% 30.11 in 10.0 mi ESE 6.9 mph - N/A   Overcast
10:55 PM 30.2 °F 21.9 °F 26.6 °F 86% 30.10 in 10.0 mi SE 9.2 mph - N/A   Overcast
11:15 PM 30.2 °F 21.3 °F 24.8 °F 80% 30.10 in 10.0 mi SE 10.4 mph - N/A   Overcast
11:35 PM 32.0 °F 24.2 °F 24.8 °F 75% 30.09 in 10.0 mi SSE 9.2 mph - N/A   Overcast
11:55 PM 32.0 °F 24.8 °F 26.6 °F 80% 30.08 in 10.0 mi SE 8.1 mph - N/A   Overcast